STF-1 (43852 NORAD) Tracking and Keplerian Element Data

This shows tracking and keplerian element data for the satellite.

Feedback or suggestion? Click here.




ElementValue
Catalog43852
NameSTF-1
Epoch Orbit28300
Epoch Day13.03782507
Epoch Year2024
RAAN20.9758
Inclination85.0077
Eccentricity0.0001607
Argument of Perigee144.0953
Mean Anonmoly216.0426
Mean Motion15.76438164
Decay Rate0.00231539
L11 43852U 18104D 24013.03782507 .00231539 00000+0 14326-2 0 9998
L22 43852 85.0077 20.9758 0001607 144.0953 216.0426 15.76438164283001



Live tracking and technical data element details for STF-1 (NORAD 43852). STF-1 can be tracked NOW for your location showing map with azimuth and elevation plus other details from your city location.







IsCatalogInMostPopularTable: catalog: 43852, numindb: 361
Update: records affected: 1



GetName: 43852 STF-1

Hit Count: updated at: Thu, 15 May 2025 10:39:54 GMT